Location: Briis
(48.6240°N, 2.1211°E)
Time: 06:34:13
(UTC+00:00)

USA 307 - Pass Details

Date: 25 September 2020
Orbit: 567 x 582 km, 54.0° (Epoch: 19 October)

Event Time Altitude Azimuth Distance (km) Brightness Sun altitude
Exits shadow 03:08:55 43° 354° (N) 804 3.7 -25.2°
Drops below altitude 10° 03:12:53 10° 63° (ENE) 1,870 6.6 -24.6°
Sets 03:15:14 0° 70° (ENE) 2,768 7.8 -24.3°
